Location: Limerick
(52.6650°N, 8.6230°W)
Time: 20:01:10
(UTC+01:00)

ISS - Pass Details

Date: 29 May 2017
Orbit: 401 x 408 km, 51.6° (Epoch: 26 June)

Event Time Altitude Azimuth Distance (km) Brightness Sun altitude
Rises 01:18:20 0° 278° (W) 2,341 0.2 -15.7°
Reaches altitude 10° 01:20:27 10° 274° (W) 1,476 -0.9 -15.7°
Maximum altitude 01:23:41 54° 196° (SSW) 506 -3.8 -15.7°
Enters shadow 01:25:01 30° 133° (SE) 763 -2.8 -15.7°
